Location: The Saddle
(36.8333°N, 80.3417°W)
Time: 21:37:26
(UTC-05:00)

Transit 4A - All Passes

Search period start: 30 November 2023 00:00
Search period end: 10 December 2023 00:00
Orbit: 864 x 979 km, 66.8° (Epoch: 30 November)

Date Brightness Start Highest point End Pass type
(mag) Time Alt. Az. Time Alt. Az. Time Alt. Az.
30 Nov - 05:53:14 10° NNW 05:58:50 37° NE 06:04:16 10° ESE visible
30 Nov - 07:39:45 10° NW 07:45:03 32° WSW 07:50:12 10° S daylight
30 Nov - 20:56:25 10° SSW 21:02:48 78° ESE 21:09:11 10° NNE night (unlit)
30 Nov - 22:45:21 10° W 22:49:49 19° NW 22:54:17 10° N night (unlit)
01 Dec - 06:02:08 10° NNW 06:08:05 54° ENE 06:13:52 10° SE visible
01 Dec - 07:49:35 10° WNW 07:53:54 21° WSW 07:58:09 10° SSW daylight
01 Dec - 19:22:22 10° SE 19:26:14 17° ESE 19:30:06 10° ENE visible
01 Dec - 21:05:31 10° SW 21:11:54 72° WNW 21:18:17 10° NNE visible
01 Dec - 22:56:13 10° WNW 22:59:21 14° NW 23:02:30 10° NNW night (unlit)
02 Dec - 04:26:44 10° N 04:29:54 14° NE 04:33:02 10° ENE visible
02 Dec - 06:11:08 10° NNW 06:17:15 81° ENE 06:23:08 10° SSE visible
02 Dec - 08:00:13 10° WNW 08:02:42 13° WSW 08:05:10 10° SW daylight
02 Dec - 19:29:57 10° SSE 19:35:06 26° ESE 19:40:13 10° NE visible
02 Dec - 21:14:55 10° SW 21:21:06 49° WNW 21:27:15 10° NNE visible
03 Dec - 04:35:01 10° N 04:39:25 20° NE 04:43:44 10° E visible
03 Dec - 06:20:18 10° NNW 06:26:20 68° WSW 06:32:08 10° SSE visible
03 Dec - 19:38:08 10° S 19:44:00 39° ESE 19:49:52 10° NE visible
03 Dec - 21:24:37 10° WSW 21:30:22 34° NW 21:36:07 10° N visible
04 Dec - 04:43:37 10° N 04:48:50 28° NE 04:53:53 10° ESE visible
04 Dec - 06:29:38 10° NW 06:35:19 44° WSW 06:40:49 10° S visible
04 Dec - 19:46:44 10° S 19:52:59 60° ESE 19:59:15 10° NE visible
04 Dec - 21:34:39 10° WSW 21:39:44 24° NW 21:44:49 10° N visible
05 Dec - 04:52:25 10° NNW 04:58:09 41° NE 05:03:42 10° SE visible
05 Dec - 06:39:12 10° NW 06:44:13 28° WSW 06:49:08 10° SSW visible
05 Dec - 18:14:23 10° ESE 18:16:37 12° E 18:18:50 10° E visible
05 Dec - 19:55:39 10° SSW 20:02:03 88° ESE 20:08:26 10° NNE visible
05 Dec - 21:45:06 10° W 21:49:13 17° NW 21:53:18 10° N visible
06 Dec - 03:18:01 10° NNE 03:19:42 11° NE 03:21:23 10° NE visible
06 Dec - 05:01:20 10° NNW 05:07:22 61° ENE 05:13:10 10° SE visible
06 Dec - 06:49:12 10° WNW 06:53:04 18° WSW 06:56:53 10° SW visible
06 Dec - 18:21:03 10° SSE 18:25:25 19° ESE 18:29:45 10° ENE visible
06 Dec - 20:04:51 10° SW 20:11:11 64° WNW 20:17:30 10° NNE visible
06 Dec - 21:56:15 10° WNW 21:58:47 12° NW 22:01:18 10° NNW visible
07 Dec - 03:25:42 10° N 03:29:17 16° NE 03:32:50 10° E visible
07 Dec - 05:10:25 10° NNW 05:16:29 89° WSW 05:22:22 10° SSE visible
07 Dec - 07:00:41 10° W 07:01:50 11° W 07:03:00 10° WSW daylight
07 Dec - 18:28:52 10° SSE 18:34:17 30° ESE 18:39:41 10° NE visible
07 Dec - 20:14:20 10° SW 20:20:24 44° WNW 20:26:27 10° NNE visible
08 Dec - 03:34:06 10° N 03:38:46 22° NE 03:43:20 10° E visible
08 Dec - 05:19:37 10° NW 05:25:32 59° WSW 05:31:16 10° S visible
08 Dec - 18:37:12 10° S 18:43:13 45° ESE 18:49:13 10° NE visible
08 Dec - 20:24:08 10° WSW 20:29:42 31° NW 20:35:15 10° N visible
09 Dec - 03:42:46 10° N 03:48:09 32° NE 03:53:22 10° ESE visible
09 Dec - 05:29:01 10° NW 05:34:30 38° WSW 05:39:50 10° S visible
09 Dec - 18:45:54 10° SSW 18:52:13 68° ESE 18:58:32 10° NNE visible
09 Dec - 20:34:17 10° W 20:39:06 22° NW 20:43:53 10° N visible
